Findlay, OH

6:11 AM EST on November 15, 2019 (GMT -0500)
Findlay

Weather History for KFDY - July, 2019

Change the Weather History Date:

Wednesday, July 10, 2019

  Actual Average Record
Temperature  
Mean Temperature 80 °F -  
Max Temperature 91 °F 82 °F 96 °F (1989)
Min Temperature 69 °F 65 °F 47 °F (1963)
Cooling Degree Days 15    
Growing Degree Days 30 (Base 50)    
Moisture  
Dew Point 67 °F    
Average Humidity 64    
Maximum Humidity 84    
Minimum Humidity 45    
Precipitation  
Precipitation 0.00 in - - ()
Sea Level Pressure  
Sea Level Pressure 29.93 in    
Wind  
Wind Speed 6 mph (SSW)    
Max Wind Speed 17 mph    
Max Gust Speed 25 mph    
Visibility 10 miles    
Events Rain , Thunderstorm    
Averages and records for this station are not official NWS values.
T = Trace of Precipitation, MM = Missing Value Source: NWS Daily Summary

Daily Weather History Graph

Daily Weather History Graph

Search for Another Location

Airport or City:

Astronomy

Jul. 10, 2019 Rise Set
Actual Time 6:11 AM EDT 9:08 PM EDT
Civil Twilight 5:38 AM EDT 9:41 PM EDT
Nautical Twilight 4:56 AM EDT 10:22 PM EDT
Astronomical Twilight 4:08 AM EDT 11:11 PM EDT
Moon 3:11 PM EDT (7/10) 1:53 AM EDT (7/10)
Length of Visible Light 16h 02m
Length of Day
14h 56m
Waxing Gibbous, 63% of the Moon is Illuminated
Jul 10
Waxing Gibbous
Jul 16
Full
Jul 24
Last Quarter
Jul 31
New
Aug 7
First Quarter

Hourly Weather History & Observations

Time (EDT) Temp. Heat Index Dew Point Humidity Pressure Visibility Wind Dir Wind Speed Gust Speed Precip Events Conditions
12:53 AM 72.0 °F - 64.0 °F 76% 29.98 in 10.0 mi East 5.8 mph - N/A   Clear
1:53 AM 71.1 °F - 62.1 °F 73% 29.98 in 10.0 mi ESE 4.6 mph - N/A   Clear
2:53 AM 70.0 °F - 63.0 °F 78% 29.96 in 10.0 mi Calm Calm - N/A   Clear
3:53 AM 69.1 °F - 63.0 °F 81% 29.96 in 10.0 mi Calm Calm - N/A   Clear
4:53 AM 70.0 °F - 64.0 °F 81% 29.96 in 10.0 mi SE 3.5 mph - N/A   Clear
5:53 AM 70.0 °F - 64.0 °F 81% 29.96 in 10.0 mi Calm Calm - N/A   Clear
6:53 AM 70.0 °F - 64.9 °F 84% 29.97 in 10.0 mi SSE 3.5 mph - N/A   Clear
7:53 AM 75.0 °F - 66.9 °F 76% 29.98 in 10.0 mi South 3.5 mph - N/A   Clear
8:53 AM 81.0 °F 83.8 °F 68.0 °F 65% 29.97 in 10.0 mi South 5.8 mph - N/A   Clear
9:53 AM 84.9 °F 89.4 °F 70.0 °F 61% 29.97 in 10.0 mi SSW 10.4 mph - N/A   Clear
10:53 AM 88.0 °F 91.4 °F 68.0 °F 51% 29.96 in 10.0 mi SW 9.2 mph - N/A   Clear
11:53 AM 90.0 °F 92.4 °F 66.0 °F 45% 29.95 in 10.0 mi SSW 11.5 mph - N/A   Partly Cloudy
12:53 PM 90.0 °F 92.8 °F 66.9 °F 46% 29.94 in 10.0 mi SSW 4.6 mph - N/A   Partly Cloudy
1:53 PM 91.0 °F 95.2 °F 68.0 °F 47% 29.93 in 10.0 mi SW 10.4 mph - N/A   Mostly Cloudy
2:53 PM 89.1 °F 93.7 °F 69.1 °F 52% 29.92 in 10.0 mi SSW 11.5 mph - N/A   Mostly Cloudy
3:53 PM 84.0 °F 89.6 °F 72.0 °F 67% 29.92 in 10.0 mi SSW 17.3 mph 25.3 mph 0.00 in Rain Light Rain
4:53 PM 90.0 °F 96.9 °F 72.0 °F 55% 29.88 in 10.0 mi SSE 9.2 mph - 0.00 in   Clear
5:53 PM 91.0 °F 99.3 °F 73.0 °F 55% 29.87 in 10.0 mi South 11.5 mph - N/A   Partly Cloudy
6:53 PM 88.0 °F 95.6 °F 73.0 °F 61% 29.84 in 10.0 mi SSE 8.1 mph - N/A   Clear
7:53 PM 86.0 °F 93.0 °F 73.0 °F 65% 29.86 in 10.0 mi West 13.8 mph - N/A   Mostly Cloudy
8:12 PM 84.0 °F 86.5 °F 66.9 °F 56% 29.90 in 10.0 mi WSW 10.4 mph - N/A   Overcast
8:25 PM 82.9 °F 85.4 °F 66.9 °F 58% 29.92 in 10.0 mi NNW 6.9 mph - N/A Thunderstorm Scattered Clouds
8:39 PM 82.0 °F 84.9 °F 68.0 °F 62% 29.92 in 10.0 mi NW 10.4 mph - 0.00 in Rain , Thunderstorm Light Thunderstorms and Rain
8:53 PM 81.0 °F 83.3 °F 66.9 °F 62% 29.89 in 10.0 mi North 12.7 mph - 0.00 in   Scattered Clouds
9:02 PM 80.1 °F 82.1 °F 66.0 °F 62% 29.91 in 10.0 mi Variable 3.5 mph - N/A Thunderstorm Thunderstorm
9:17 PM 80.1 °F 82.1 °F 66.0 °F 62% 29.91 in 10.0 mi ENE 5.8 mph - 0.00 in   Scattered Clouds
9:53 PM 78.1 °F - 66.0 °F 66% 29.89 in 10.0 mi SSW 9.2 mph - 0.00 in   Partly Cloudy
10:53 PM 77.0 °F - 66.0 °F 69% 29.88 in 10.0 mi South 8.1 mph - N/A   Clear
11:53 PM 77.0 °F - 66.0 °F 69% 29.86 in 10.0 mi WSW 8.1 mph - N/A   Clear